Ontario, OR

7:17 AM MST on January 20, 2018 (GMT -0700)
Ontario Municipal

Weather History for KONO - June, 2014

Change the Weather History Date:

Saturday, June 7, 2014

  Actual Average Record
Temperature  
Mean Temperature 71 °F 65 °F  
Max Temperature 87 °F 81 °F 100 °F (1977)
Min Temperature 54 °F 50 °F 37 °F (1962)
Degree Days  
Heating Degree Days 0 3  
Month to date heating degree days 0 21  
Since 1 June heating degree days 0 21  
Since 1 July heating degree days 5880 5971  
Cooling Degree Days 6 3  
Month to date cooling degree days 41 19  
Year to date cooling degree days 89 55  
Since 1 June cooling degree days 41 19  
Growing Degree Days 20 (Base 50)    
Moisture  
Dew Point 32 °F    
Average Humidity 30    
Maximum Humidity 47    
Minimum Humidity 12    
Precipitation  
Precipitation 0.00 in 0.03 in 0.30 in (1953)
Month to date precipitation T 0.23  
Year to date precipitation 4.73 5.30  
Sea Level Pressure  
Sea Level Pressure 29.94 in    
Wind  
Wind Speed 10 mph (NW)    
Max Wind Speed 23 mph    
Max Gust Speed 28 mph    
Visibility 10 miles    
Events      
T = Trace of Precipitation, MM = Missing Value Source: NWS Daily Summary

Daily Weather History Graph

Daily Weather History Graph

Search for Another Location

Airport or City:

Trip Planner

Search our weather history database for the weather conditions in past years. The results will help you decide how hot, cold, wet, or windy it might be!

Date:

Astronomy

Jun. 07, 2014 Rise Set
Actual Time 6:05 AM MDT 9:28 PM MDT
Civil Twilight 5:29 AM MDT 10:04 PM MDT
Nautical Twilight 4:42 AM MDT 10:51 PM MDT
Astronomical Twilight 3:44 AM MDT 11:50 PM MDT
Moon 3:40 PM MDT (6/7) 2:41 AM MDT (6/7)
Length of Visible Light 16h 34m
Length of Day
15h 22m
Waxing Gibbous, 68% of the Moon is Illuminated
Jun 7
Waxing Gibbous
Jun 12
Full
Jun 19
Last Quarter
Jun 27
New
Jul 5
First Quarter

Hourly Weather History & Observations

Time (MDT) Temp. Dew Point Humidity Pressure Visibility Wind Dir Wind Speed Gust Speed Precip Events Conditions
12:53 AM 68.0 °F 28.9 °F 23% 29.94 in 10.0 mi NW 13.8 mph - N/A   Clear
1:53 AM 66.9 °F 30.0 °F 25% 29.94 in 10.0 mi NW 11.5 mph - N/A   Clear
2:53 AM 60.1 °F 33.1 °F 36% 29.95 in 10.0 mi SW 5.8 mph - N/A   Clear
3:53 AM 57.0 °F 36.0 °F 45% 29.96 in 10.0 mi SSE 4.6 mph - N/A   Clear
4:53 AM 60.1 °F 32.0 °F 35% 29.96 in 10.0 mi West 3.5 mph - N/A   Clear
6:53 AM 55.0 °F 36.0 °F 49% 29.99 in 10.0 mi WSW 9.2 mph - N/A   Clear
9:53 AM 72.0 °F 34.0 °F 25% 30.00 in 10.0 mi Variable 4.6 mph - N/A   Clear
10:53 AM 75.0 °F 34.0 °F 22% 29.99 in 10.0 mi NNW 5.8 mph - N/A   Clear
11:53 AM 77.0 °F 30.0 °F 18% 29.97 in 10.0 mi Variable 4.6 mph - N/A   Clear
12:53 PM 79.0 °F 33.1 °F 19% 29.96 in 10.0 mi South 6.9 mph - N/A   Clear
1:53 PM 82.0 °F 33.1 °F 17% 29.94 in 7.0 mi Variable 6.9 mph - N/A   Clear
2:53 PM 81.0 °F 30.9 °F 16% 29.93 in 10.0 mi NE 9.2 mph - N/A   Clear
3:53 PM 82.9 °F 24.1 °F 12% 29.93 in 10.0 mi NNW 16.1 mph 20.7 mph N/A   Clear
4:53 PM 82.9 °F 26.1 °F 13% 29.91 in 10.0 mi North 9.2 mph - N/A   Clear
5:53 PM 84.0 °F 30.0 °F 14% 29.90 in 10.0 mi NNE 9.2 mph 17.3 mph N/A   Clear
6:53 PM 84.0 °F 28.9 °F 14% 29.88 in 10.0 mi NNW 12.7 mph 20.7 mph N/A   Partly Cloudy
7:53 PM 82.9 °F 32.0 °F 16% 29.88 in 10.0 mi NNW 17.3 mph - N/A   Partly Cloudy
8:53 PM 78.1 °F 33.1 °F 19% 29.89 in 10.0 mi NW 18.4 mph 25.3 mph N/A   Clear
9:53 PM 75.0 °F 33.1 °F 22% 29.91 in 10.0 mi NW 18.4 mph 26.5 mph N/A   Clear
10:53 PM 73.0 °F 34.0 °F 24% 29.94 in 10.0 mi NNW 17.3 mph - N/A   Clear
11:53 PM 71.1 °F 34.0 °F 26% 29.95 in 10.0 mi NNW 15.0 mph 26.5 mph N/A   Clear